TimeEDT,TemperatureF,Dew PointF,Humidity,Sea Level PressureIn,VisibilityMPH,Wind Direction,Wind SpeedMPH,Gust SpeedMPH,PrecipitationIn,Events,Conditions,WindDirDegrees,DateUTC
12:20 AM,71.6,71.6,100,29.96,1.8,Calm,Calm,-,0.29,Rain-Thunderstorm,Heavy Thunderstorms and Rain,0,2012-10-07 04:20:00
12:30 AM,73.4,71.6,94,29.95,3.0,Variable,3.5,-,0.36,Rain,Rain,0,2012-10-07 04:30:00
12:53 AM,72.0,72.0,100,29.96,4.0,North,9.2,-,0.50,Rain,Rain,10,2012-10-07 04:53:00
1:03 AM,73.4,73.4,100,29.97,8.0,ENE,4.6,-,0.01,Rain-Thunderstorm,Light Rain,60,2012-10-07 05:03:00
1:25 AM,73.4,73.4,100,29.95,5.0,North,4.6,-,0.09,Rain,Rain,10,2012-10-07 05:25:00
1:53 AM,73.0,73.0,100,29.93,10.0,ENE,4.6,-,0.13,Rain,Light Rain,60,2012-10-07 05:53:00
2:53 AM,75.0,73.9,96,29.90,10.0,SE,5.8,-,0.00,,Scattered Clouds,140,2012-10-07 06:53:00
3:53 AM,73.9,73.0,97,29.88,10.0,NNW,6.9,-,N/A,,Clear,340,2012-10-07 07:53:00
4:53 AM,73.0,73.0,100,29.88,10.0,Calm,Calm,-,N/A,,Clear,0,2012-10-07 08:53:00
5:53 AM,73.9,73.9,100,29.90,10.0,North,6.9,-,N/A,,Clear,350,2012-10-07 09:53:00
6:53 AM,73.9,73.9,100,29.91,10.0,North,5.8,-,N/A,,Clear,10,2012-10-07 10:53:00
7:53 AM,73.9,73.9,100,29.93,10.0,North,5.8,-,N/A,,Scattered Clouds,350,2012-10-07 11:53:00
8:53 AM,75.0,75.0,100,29.94,10.0,North,5.8,-,N/A,,Scattered Clouds,360,2012-10-07 12:53:00
9:53 AM,77.0,75.9,96,29.97,10.0,ENE,10.4,16.1,N/A,,Mostly Cloudy,70,2012-10-07 13:53:00
10:53 AM,80.1,75.9,87,29.98,10.0,East,9.2,-,N/A,,Mostly Cloudy,80,2012-10-07 14:53:00
11:53 AM,82.9,73.9,74,29.97,10.0,ENE,10.4,-,N/A,,Scattered Clouds,60,2012-10-07 15:53:00
12:53 PM,80.1,73.9,81,29.97,10.0,NE,11.5,-,N/A,,Mostly Cloudy,50,2012-10-07 16:53:00
1:53 PM,80.1,75.9,87,29.96,10.0,ENE,6.9,-,N/A,,Mostly Cloudy,60,2012-10-07 17:53:00
2:53 PM,80.1,75.9,87,29.93,10.0,NE,5.8,-,0.00,,Overcast,50,2012-10-07 18:53:00
3:53 PM,80.1,73.0,79,29.92,10.0,ENE,6.9,-,N/A,,Clear,60,2012-10-07 19:53:00
4:53 PM,80.1,75.0,85,29.93,10.0,ENE,6.9,-,N/A,,Scattered Clouds,60,2012-10-07 20:53:00
5:53 PM,78.1,73.0,84,29.93,10.0,ENE,5.8,-,0.00,Rain,Light Rain,60,2012-10-07 21:53:00
6:53 PM,75.9,72.0,87,29.94,10.0,ENE,10.4,16.1,0.01,Rain,Light Rain,70,2012-10-07 22:53:00
7:53 PM,77.0,71.1,82,29.96,10.0,ENE,5.8,-,0.00,,Partly Cloudy,60,2012-10-07 23:53:00
8:53 PM,78.1,75.9,93,29.96,10.0,Variable,4.6,29.9,N/A,,Clear,0,2012-10-08 00:53:00
9:53 PM,78.1,77.0,96,29.98,10.0,ENE,3.5,-,N/A,,Clear,60,2012-10-08 01:53:00
10:53 PM,79.0,75.0,88,29.98,10.0,East,6.9,-,N/A,,Clear,90,2012-10-08 02:53:00
11:53 PM,79.0,75.0,88,29.96,10.0,East,5.8,-,N/A,,Clear,80,2012-10-08 03:53:00